Regional Weather Roundup
Issued by NWS Newport/Morehead, NC

Current Version | Previous Version | Graphics & Text | Print | Product List | Glossary Off
Versions: 1 2 3 4 5 6 7 8 9 10 11 12 13 14 15 16 17 18 19 20 21 22 23 24 25 26 27 28 29 30 31 32 33 34 35 36 37 38 39 40 41 42 43 44 45 46 47 48 49 50

000
ASUS42 KMHX 262125
RWRMHX
WEATHER ROUNDUP FOR EASTERN NORTH CAROLINA
NATIONAL WEATHER SERVICE NEWPORT/MOREHEAD CITY NC
500 PM EDT FRI MAY 26 2017

NOTE: "FAIR" INDICATES FEW OR NO CLOUDS BELOW 12,000 FEET
WITH NO SIGNIFICANT WEATHER AND/OR OBSTRUCTIONS TO VISIBILITY

NCZ015>017-031-032-045>047-102-103-262200-
NORTH COAST

CITY           SKY/WX    TMP DP  RH WIND       PRES   REMARKS
EDENTON        MOSUNNY   81  56  42 NW10G20   29.86R
ELIZABETH CITY MOSUNNY   80  58  46 W16       29.83R
KITTY HAWK     CLEAR     78  55  44 W9G20     29.83R
MANTEO         MOSUNNY   78  56  45 W10G20    29.85R

$$

NCZ045>047-081-094-103-104-262200-
CENTRAL COAST

CITY           SKY/WX    TMP DP  RH WIND       PRES   REMARKS
FRISCO         SUNNY     80  60  50 W10G20    29.86S

$$

NCZ095-097-098-100-101-262200-
SOUTHERN COAST

CITY           SKY/WX    TMP DP  RH WIND       PRES   REMARKS
BEAUFORT       SUNNY     78  66  66 SW22      29.87F
CEDAR ISLAND   NOT AVBL
JACKSONVILLE   SUNNY     83  55  38 W14       29.87S
PINEY ISLAND   CLEAR    N/A N/A N/A W15       29.86F
WILMINGTON     SUNNY     84  55  36 W16       29.89S


$$

NCZ011>013-027>030-043-044-078>080-089-090>093-098-262200-
COASTAL PLAIN

CITY           SKY/WX    TMP DP  RH WIND       PRES   REMARKS
AHOSKIE        NOT AVBL
CLINTON        SUNNY     84  55  37 W9        29.90R
ELIZABETHTOWN  SUNNY     84  52  33 W8        29.90S
GOLDSBORO      MOSUNNY   82  54  37 W14       29.87S
GREENVILLE     MOSUNNY   81  55  41 W7        29.90S
HAVELOCK       MOSUNNY   84  54  35 W14G25    29.88S
KENANSVILLE    SUNNY     82  52  34 W10G17    29.89S
KINSTON        SUNNY     82  54  36 W8        29.89S
NEW BERN       SUNNY     82  56  40 W12G21    29.88S
RICHLANDS      SUNNY     83  55  38 W10G17    29.88S
ROCKY MOUNT    SUNNY     80  56  43 NW14      29.88S
WASHINGTON     MOSUNNY   80  56  44 NW8       29.87S
WHITEVILLE     SUNNY     83  55  38 W6        29.91R

$$

AMZ130-135-150-152-154-156-158-170-250-252-270-ANZ085-086-088-633-658-670-262200-
MARINE OBSERVATIONS

STATION/POSITION TIME  TEMP    WIND        PRES    WAVE   SWELL
                       AIR SEA DIR/SP/G            HT/PER HT/PER
                 (UTC) (F)     (DEG/KT/KT) (MB)    (FT/S) (FT/S)
CHESAPEAKE LIGHT NOT AVBL
64 E VA BEACH    2050   65 63  230/  6/  6 1010.2    5/ 8   5/ 8
DUCK             2100   78 62  280/ 15/ 19 1009.7
2 E DUCK         2100      64                N/A     2/ 8
OREGON INLET     2100   78 73  280/ 11/ 14 1010.4
13E OREGON INLT  2048      66                N/A     3/ 8   3/ 8
HATTERAS CG      2100   76 72  270/ 12/ 15 1011.1
DIAMOND BUOY     2050   75 80  250/ 17/ 21 1011.1    6/ 8   2/ 8
CAPE LOOKOUT     2100   76     220/ 12/ 17 1011.5
BEAUFORT LAB     2100   77 72  220/  6/ 17 1011.0
30 SE NEW RVR IN 2108   75 78  240/ 17/ 21 1012.4
30 SE NEW RVR IN 2113      78                N/A     5/ 7
27 SE WRIGHTSVLE 2108   74 76  220/ 19/ 25 1011.8
5 SE WRIGHTSVLE  2108   75 74  220/ 16/ 25 1012.3
225 S CAPE HAT   2050   77 77  260/ 10/ 14 1015.2    6/ 7   5/ 7
41 SE CHARLESTON 2110   74 75  240/ 16/ 19 1014.5

$$



USA.gov is the U.S. government's official web portal to all federal, state and local government web resources and services.